Printer-friendly version
Follow the MPC on Twitter Follow the MPC on Facebook The MPC blog
Minor Planet Center

MPEC 2006-K68 : 2006 KZ86

The following Minor Planet Electronic Circular may be linked-to from your own Web pages, but must not otherwise be redistributed electronically.

A form allowing access to any MPEC is at the bottom of this page.


Read MPEC 2006-K67 Read MPEC 2006-K69


M.P.E.C. 2006-K68                                Issued 2006 May 29, 17:49 UT

     The Minor Planet Electronic Circulars contain information on unusual
         minor planets and routine data on comets.  They are published
   on behalf of Commission 20 of the International Astronomical Union by the
          Minor Planet Center, Smithsonian Astrophysical Observatory,
                          Cambridge, MA 02138, U.S.A.

                  Supported in part by the Brinson Foundation
                  Supported in part by the TABASGO Foundation
             Prepared using the Tamkin Foundation Computer Network

                              MPC@CFA.HARVARD.EDU
          URL http://cfa-www.harvard.edu/iau/mpc.html  ISSN 1523-6714

                                   2006 KZ86

Observations:
     K06K86Z* C2006 05 27.32931 16 45 44.78 -04 01 40.7          19.2 V EK068G96
     K06K86Z  C2006 05 27.33586 16 45 43.56 -04 01 43.2          18.7 V EK068G96
     K06K86Z  C2006 05 27.34235 16 45 42.48 -04 01 45.5          19.2 V EK068G96
     K06K86Z  C2006 05 27.34892 16 45 41.32 -04 01 47.8          19.3 V EK068G96
     K06K86Z  C2006 05 27.83609 16 44 18.30 -04 04 45.3          19.6 V EK068A50
     K06K86Z  C2006 05 27.83840 16 44 17.83 -04 04 46.3          20.4 V EK068A50
     K06K86Z  C2006 05 27.84029 16 44 17.49 -04 04 46.7          19.3 V EK068A50
     K06K86Z  C2006 05 27.97699 16 43 54.31 -04 05 35.0          19.7 R EK068J87
     K06K86Z  C2006 05 27.98070 16 43 53.65 -04 05 36.6          19.8 R EK068J87
     K06K86Z  C2006 05 27.98441 16 43 53.04 -04 05 38.2          20.0 R EK068J87
     K06K86Z IC2006 05 28.04801 16 43 41.88 -04 06 02.6                 EK068J95
     K06K86Z  C2006 05 28.05221 16 43 41.17 -04 06 05.5                 EK068J95
     K06K86Z  C2006 05 28.05626 16 43 40.49 -04 06 05.7          19.7 R EK068J95
     K06K86Z  C2006 05 28.07339 16 43 37.48 -04 06 11.4          19.4 R EK068204
     K06K86Z  C2006 05 28.08435 16 43 35.55 -04 06 15.8          19.8 R EK068204
     K06K86Z  C2006 05 28.16941 16 43 21.51 -04 06 37.4          19.4 R EK068I77
     K06K86Z  C2006 05 28.17459 16 43 20.57 -04 06 40.1          19.5 R EK068I77
     K06K86Z  C2006 05 28.17565 16 43 20.39 -04 06 40.1          19.6 R EK068I77
     K06K86Z  C2006 05 28.33082 16 42 54.12 -04 07 42.8          19.1 V EK068G96
     K06K86Z  C2006 05 28.33390 16 42 53.60 -04 07 44.8          19.3 V EK068G96
     K06K86Z  C2006 05 28.98360 16 41 04.78 -04 11 44.8                 EK068118
     K06K86Z  C2006 05 28.98872 16 41 04.02 -04 11 49.0                 EK068118
     K06K86Z  C2006 05 29.22836 16 40 24.60 -04 13 14.4          19.4 V EK068G96
     K06K86Z  C2006 05 29.24469 16 40 21.86 -04 13 20.4          19.4 V EK068G96
     K06K86Z  C2006 05 29.25281 16 40 20.49 -04 13 23.5          19.5 V EK068G96
     K06K86Z  C2006 05 29.26459 16 40 18.38 -04 13 28.6          20.8 R EK068734
     K06K86Z  C2006 05 29.26753 16 40 17.83 -04 13 28.9          19.9 R EK068734
     K06K86Z  C2006 05 29.27047 16 40 17.37 -04 13 30.9          20.4 R EK068734
     K06K86Z  C2006 05 29.31578 16 40 09.85 -04 13 49.2          19.6 R EK068854
     K06K86Z 5C2006 05 29.38981 16 39 57.56 -04 14 14.2          19.8 R EK068673
     K06K86Z 5C2006 05 29.39340 16 39 56.93 -04 14 15.8                 EK068673
     K06K86Z  C2006 05 29.39669 16 39 56.26 -04 14 16.9          19.6 V EK068G96
     K06K86Z  C2006 05 29.39765 16 39 56.08 -04 14 17.2          19.6 V EK068G96
     K06K86Z  C2006 05 29.39853 16 39 55.94 -04 14 17.1          19.5 V EK068G96
     K06K86Z  C2006 05 29.39942 16 39 55.80 -04 14 17.8          19.6 V EK068G96
     K06K86Z 5C2006 05 29.40001 16 39 55.81 -04 14 18.1                 EK068673
     K06K86Z 5C2006 05 29.40532 16 39 54.90 -04 14 20.1                 EK068673

Observer details:
118 Modra.  Observers S. Gajdos, J. Vilagi.  0.6-m f/5.5 reflector + CCD.
204 Schiaparelli Observatory.  Observers L. Buzzi, F. Luppi.  Measurer
    L. Buzzi.  0.60-m f/4.64 reflector + CCD.
673 Table Mountain Observatory, Wrightwood.  Observer J. Young.  0.61-m f/16
    Cassegrain + CCD.
734 Farpoint Observatory.  Observer D. Tibbets.  0.7-m reflector + CCD.
854 Sabino Canyon Observatory, Tucson.  Observer J. E. McGaha.  0.36-m f/10.0
    Schmidt-Cassegrain + CCD.
A50 Andrushivka Astronomical Observatory.  Observers O. Gerashchenko,
    Y. Ivashchenko, D. Kyrylenko.  0.6-m reflector + CCD.
G96 Mt. Lemmon Survey.  Observers R. A. Kowalski, A. D. Grauer.  Measurers
    E. C. Beshore, E. J. Christensen, G. J. Garradd, A. R. Gibbs, A. D. Grauer,
    R. E. Hill, R. A. Kowalski, S. M. Larson, R. H. McNaught.  1.5-m reflector
    + CCD.
I77 CEAMIG-REA Observatory, Belo Horizonte.  Observers C. Jacques, E. Pimentel.
    Measurer C. Jacques.  0.30-m f/3.0 Schmidt-Cassegrain + CCD.
J87 La Canada.  Observer J. Lacruz.  0.30-m Schmidt-Cassegrain + CCD.
J95 Great Shefford.  Observer P. Birtwhistle.  0.40-m f/6.0 Schmidt-Cassegrain
    + CCD.

Orbital elements:
2006 KZ86                                                Earth MOID = 0.2384 AU
Epoch 2006 Mar. 6.0 TT = JDT 2453800.5                  MPC
M   4.79196              (2000.0)            P               Q
n   0.24226057     Peri.    3.10240     -0.18219540     -0.93770891
a   2.5484781      Node    97.53772     +0.89558006     -0.28244900
e   0.8992215      Incl.   17.36117     +0.40588322     +0.20229820
P   4.07           H   17.8           G   0.15           U   9
Residuals in seconds of arc
060527 G96  0.4+  0.1-    060528 204  0.1-  0.2+    060529 734  0.5-  0.9+
060527 G96  0.6-  0.3-    060528 204  0.8-  0.2-    060529 734  0.0   0.0
060527 G96  0.2+  0.2-    060528 I77  2.7+  0.2-    060529 854  0.4-  2.3-
060527 G96  0.1+  0.2-    060528 I77  2.0+  1.1-    060529 673  1.0+  0.4+
060527 A50  0.8+  0.4+    060528 I77  2.1+  0.7-    060529 673  0.6+  0.1+
060527 A50  0.3-  0.3+    060528 G96  0.6-  1.3+    060529 G96  0.3-  0.1-
060527 A50  0.5-  0.6+    060528 G96  0.5-  0.4+    060529 G96  0.6-  0.0
060527 J87  1.6+  1.0+    060528 118  1.0-  1.0+    060529 G96  0.5-  0.4+
060527 J87  1.3+  0.7+    060528 118  0.5+  1.3-    060529 G96  0.3-  0.1+
060527 J87  1.8+  0.5+    060529 G96  0.2+  0.0     060529 673  0.4+  0.2+
060528 J95  0.8-  0.4+    060529 G96  0.3+  0.1+    060529 673  0.1+  0.2+
060528 J95  0.6-  1.0-    060529 G96  0.2+  0.0
060528 J95  0.4-  0.3+    060529 734  0.3+  0.1+

Ephemeris:
2006 KZ86                a,e,i = 2.55, 0.90, 17                  q = 0.2568
Date    TT    R. A. (2000) Decl.     Delta      r     Elong.  Phase     V
2006 05 25    16 52.58   -03 47.9    0.919    1.901   159.5    10.7    19.7
2006 06 04    16 25.54   -04 50.0    1.035    2.023   161.7     9.1    20.0
2006 06 14    16 04.90   -05 57.7    1.182    2.139   153.5    12.2    20.5
2006 06 24    15 50.50   -07 07.1    1.355    2.250   142.8    15.9    21.1
2006 07 04    15 41.51   -08 16.5    1.550    2.357   132.2    18.6    21.6
2006 07 14    15 36.91   -09 24.6    1.761    2.459   122.3    20.4    22.0

Gareth V. Williams           (C) Copyright 2006 MPC           M.P.E.C. 2006-K68

Read MPEC 2006-K67 Read MPEC 2006-K69


MPEC number:

Enter an MPEC number in one of the following forms:

  • 1997-B01 (the full form)
  • J97B01 (the packed version of the full form)
  • B01 (the abbreviated form)

Valid HTML 4.01!